When you browse on this site, cookies collect data to enhance your experience and personalize the content and advertising you see.
Visit our Privacy Policy to learn more. By continuing to use the site, you agree to this use of cookies and data.
  • In United Kingdom
  • List of Countries
  • For 7 days
  • Water Temperature
  • Satellite Maps
  • Weather Map
  • Weather Widgets
  • user-avatar
    Login

    Hourly Weather Kitzbuhel

    Today, 21 April, Sunday

    Time Temperature Precipitation Wind Pressure Humidity
    00:00 +7°C° 0 mm 2 mps 682 mmHg 64%
    01:00 +6°C° 0 mm 2 mps 682 mmHg 63%
    02:00 +6°C° 0 mm 2 mps 681 mmHg 64%
    03:00 +6°C° 0 mm 2 mps 681 mmHg 65%
    04:00 +6°C° 0 mm 2 mps 681 mmHg 66%
    05:00 +7°C° 0 mm 2 mps 681 mmHg 64%
    06:00 +8°C° 0 mm 2 mps 681 mmHg 62%
    07:00 +9°C° 0 mm 2 mps 680 mmHg 60%
    08:00 +13°C° 0 mm 1 mps 681 mmHg 51%
    09:00 +16°C° 0 mm 1 mps 681 mmHg 41%
    10:00 +18°C° 0 mm 0 mps 681 mmHg 32%
    11:00 +21°C° 0 mm 1 mps 681 mmHg 31%
    12:00 +21°C° 0 mm 1 mps 680 mmHg 29%
    13:00 +22°C° 0 mm 1 mps 680 mmHg 28%
    14:00 +22°C° 0 mm 1 mps 680 mmHg 30%
    15:00 +21°C° 0 mm 1 mps 679 mmHg 33%
    16:00 +21°C° 0 mm 1 mps 679 mmHg 35%
    17:00 +18°C° 0 mm 1 mps 678 mmHg 46%
    18:00 +14°C° 0 mm 1 mps 677 mmHg 58%
    19:00 +12°C° 0 mm 1 mps 677 mmHg 70%
    20:00 +11°C° 0 mm 1 mps 677 mmHg 71%
    21:00 +9°C° 0 mm 2 mps 677 mmHg 72%
    22:00 +8°C° 0 mm 2 mps 677 mmHg 73%
    23:00 +8°C° 0 mm 2 mps 677 mmHg 73%

    Tomorrow, 22 April, Monday

    Time Temperature Precipitation Wind Pressure Humidity
    00:00 +8°C° 0 mm 2 mps 677 mmHg 74%
    01:00 +7°C° 0 mm 2 mps 676 mmHg 75%
    02:00 +7°C° 0 mm 2 mps 676 mmHg 75%
    03:00 +7°C° 0 mm 2 mps 676 mmHg 76%
    04:00 +7°C° 0 mm 2 mps 675 mmHg 76%
    05:00 +8°C° 0 mm 2 mps 675 mmHg 71%
    06:00 +9°C° 0 mm 2 mps 675 mmHg 66%
    07:00 +10°C° 0 mm 2 mps 675 mmHg 61%
    08:00 +14°C° 0 mm 1 mps 675 mmHg 52%
    09:00 +16°C° 0 mm 1 mps 675 mmHg 43%
    10:00 +20°C° 0 mm 1 mps 675 mmHg 34%
    11:00 +21°C° 0 mm 1 mps 674 mmHg 32%
    12:00 +22°C° 0 mm 1 mps 674 mmHg 31%
    13:00 +21°C° 0 mm 2 mps 673 mmHg 30%
    14:00 +21°C° 0 mm 2 mps 673 mmHg 32%
    15:00 +20°C° 0 mm 2 mps 672 mmHg 34%
    16:00 +20°C° 0 mm 2 mps 671 mmHg 36%
    17:00 +18°C° 0 mm 2 mps 671 mmHg 48%
    18:00 +15°C° 0 mm 2 mps 670 mmHg 60%
    19:00 +12°C° 0 mm 2 mps 669 mmHg 72%
    20:00 +10°C° 0 mm 2 mps 669 mmHg 73%
    21:00 +9°C° 0 mm 2 mps 669 mmHg 75%
    22:00 +8°C° 0 mm 3 mps 669 mmHg 76%
    23:00 +8°C° 0 mm 3 mps 668 mmHg 75%

    Day after tomorrow, 23 April, Tuesday

    Time Temperature Precipitation Wind Pressure Humidity
    00:00 +8°C° 0 mm 3 mps 668 mmHg 74%
    01:00 +7°C° 0 mm 3 mps 667 mmHg 72%
    02:00 +7°C° 0 mm 3 mps 667 mmHg 72%
    03:00 +7°C° 0 mm 3 mps 667 mmHg 72%
    04:00 +7°C° 0 mm 3 mps 666 mmHg 72%
    05:00 +8°C° 0 mm 3 mps 666 mmHg 70%
    06:00 +9°C° 0 mm 2 mps 666 mmHg 69%
    07:00 +10°C° 0 mm 2 mps 666 mmHg 67%
    08:00 +13°C° 0 mm 2 mps 667 mmHg 63%
    09:00 +14°C° 0 mm 2 mps 667 mmHg 59%
    10:00 +16°C° 0 mm 2 mps 667 mmHg 55%
    11:00 +17°C° 0 mm 2 mps 667 mmHg 51%
    12:00 +18°C° 0 mm 2 mps 667 mmHg 46%
    13:00 +19°C° 0 mm 2 mps 667 mmHg 42%
    14:00 +19°C° 0 mm 2 mps 667 mmHg 42%
    15:00 +19°C° 0 mm 2 mps 667 mmHg 43%
    16:00 +19°C° 0 mm 2 mps 667 mmHg 43%
    17:00 +17°C° 0 mm 2 mps 667 mmHg 51%
    18:00 +15°C° 0 mm 2 mps 666 mmHg 60%
    19:00 +13°C° 0 mm 2 mps 666 mmHg 68%
    20:00 +11°C° 0 mm 3 mps 666 mmHg 70%
    21:00 +10°C° 0 mm 3 mps 667 mmHg 71%
    22:00 +9°C° 0 mm 3 mps 667 mmHg 72%
    23:00 +9°C° 0 mm 3 mps 667 mmHg 72%

    24 April, Wednesday

    Time Temperature Precipitation Wind Pressure Humidity
    00:00 +9°C° 0 mm 3 mps 668 mmHg 72%
    01:00 +9°C° 0 mm 3 mps 668 mmHg 72%
    02:00 +9°C° 0 mm 3 mps 668 mmHg 73%
    03:00 +9°C° 0 mm 3 mps 668 mmHg 74%
    04:00 +9°C° 0 mm 3 mps 669 mmHg 74%
    05:00 +10°C° 0.1 mm 3 mps 669 mmHg 72%
    06:00 +12°C° 0.1 mm 2 mps 670 mmHg 70%
    07:00 +13°C° 0.1 mm 2 mps 670 mmHg 68%
    08:00 +15°C° 0 mm 2 mps 671 mmHg 60%
    09:00 +17°C° 0 mm 2 mps 672 mmHg 53%
    10:00 +19°C° 0 mm 2 mps 673 mmHg 45%
    11:00 +20°C° 0 mm 3 mps 673 mmHg 42%
    12:00 +20°C° 0 mm 3 mps 673 mmHg 39%
    13:00 +21°C° 0 mm 4 mps 673 mmHg 36%
    14:00 +20°C° 0 mm 4 mps 673 mmHg 38%
    15:00 +19°C° 0 mm 4 mps 672 mmHg 41%
    16:00 +18°C° 0 mm 4 mps 672 mmHg 44%
    17:00 +17°C° 0 mm 4 mps 673 mmHg 51%
    18:00 +14°C° 0 mm 3 mps 673 mmHg 59%
    19:00 +12°C° 0 mm 3 mps 673 mmHg 67%
    20:00 +12°C° 0 mm 2 mps 674 mmHg 74%
    21:00 +9°C° 0 mm 2 mps 675 mmHg 81%
    22:00 +9°C° 0 mm 1 mps 675 mmHg 88%
    23:00 +8°C° 0 mm 2 mps 675 mmHg 86%

    25 April, Thursday

    Time Temperature Precipitation Wind Pressure Humidity
    00:00 +8°C° 0 mm 2 mps 675 mmHg 85%
    01:00 +7°C° 0 mm 2 mps 675 mmHg 83%
    02:00 +7°C° 0 mm 3 mps 675 mmHg 82%
    03:00 +7°C° 0 mm 3 mps 675 mmHg 81%
    04:00 +7°C° 0 mm 3 mps 675 mmHg 80%
    05:00 +8°C° 0 mm 3 mps 675 mmHg 74%
    06:00 +9°C° 0 mm 3 mps 675 mmHg 69%
    07:00 +10°C° 0 mm 3 mps 675 mmHg 63%
    08:00 +13°C° 0 mm 3 mps 676 mmHg 55%
    09:00 +16°C° 0 mm 3 mps 676 mmHg 46%
    10:00 +18°C° 0 mm 3 mps 676 mmHg 37%
    11:00 +19°C° 0 mm 3 mps 676 mmHg 35%
    12:00 +20°C° 0 mm 3 mps 676 mmHg 33%
    13:00 +21°C° 0 mm 3 mps 676 mmHg 31%
    14:00 +20°C° 0 mm 3 mps 676 mmHg 33%
    15:00 +20°C° 0 mm 3 mps 675 mmHg 34%
    16:00 +20°C° 0 mm 3 mps 675 mmHg 36%
    17:00 +17°C° 0 mm 3 mps 675 mmHg 45%
    18:00 +14°C° 0 mm 3 mps 674 mmHg 55%
    19:00 +13°C° 0 mm 2 mps 674 mmHg 64%
    20:00 +12°C° 0 mm 2 mps 674 mmHg 67%
    21:00 +11°C° 0 mm 3 mps 674 mmHg 71%
    22:00 +10°C° 0 mm 3 mps 675 mmHg 74%
    23:00 +9°C° 0 mm 2 mps 675 mmHg 76%

    26 April, Friday

    Time Temperature Precipitation Wind Pressure Humidity
    00:00 +9°C° 0 mm 2 mps 675 mmHg 79%
    01:00 +8°C° 0 mm 2 mps 675 mmHg 81%
    02:00 +9°C° 0 mm 1 mps 675 mmHg 85%
    03:00 +8°C° 0 mm 1 mps 675 mmHg 88%
    04:00 +8°C° 0 mm 1 mps 675 mmHg 92%
    05:00 +8°C° 0.1 mm 1 mps 675 mmHg 90%
    06:00 +9°C° 0.1 mm 1 mps 675 mmHg 88%
    07:00 +9°C° 0.1 mm 1 mps 675 mmHg 86%
    08:00 +8°C° 0.3 mm 2 mps 675 mmHg 87%
    09:00 +8°C° 0.3 mm 2 mps 675 mmHg 88%
    10:00 +8°C° 0.3 mm 2 mps 675 mmHg 88%
    11:00 +7°C° 1.4 mm 2 mps 675 mmHg 90%
    12:00 +6°C° 1.4 mm 2 mps 675 mmHg 92%
    13:00 +6°C° 1.4 mm 2 mps 675 mmHg 93%
    14:00 +5°C° 1.2 mm 2 mps 675 mmHg 92%
    15:00 +5°C° 1.2 mm 2 mps 675 mmHg 91%
    16:00 +5°C° 1.2 mm 2 mps 676 mmHg 91%
    17:00 +4°C° 1.1 mm 2 mps 676 mmHg 92%
    18:00 +5°C° 1.1 mm 1 mps 677 mmHg 93%
    19:00 +5°C° 1.1 mm 1 mps 677 mmHg 94%
    20:00 +4°C° 0.5 mm 1 mps 678 mmHg 95%
    21:00 +3°C° 0.5 mm 2 mps 678 mmHg 95%
    22:00 +2°C° 0.5 mm 2 mps 679 mmHg 95%
    23:00 +2°C° 0.7 mm 2 mps 679 mmHg 96%
    Show more